Location: Ernsee
(50.8780°N, 12.0389°E)
Time: 19:38:05
(UTC+00:00)

Cosmos 1420 Rocket - Pass Details

Date: 20 January 2020
Orbit: 754 x 782 km, 74.0° (Epoch: 21 February)

Event Time Altitude Azimuth Distance (km) Brightness Sun altitude
Exits shadow 06:19:13 - 334° (NNW) 3,232 6.8 -7.1°
Reaches altitude 10° 06:21:32 10° 334° (NNW) 2,329 6.1 -6.8°
Maximum altitude 06:26:50 80° 249° (WSW) 795 4.1 -6.0°
Drops below altitude 10° 06:32:08 10° 162° (SSE) 2,328 7.2 -5.2°
Sets 06:34:31 0° 162° (SSE) 3,254 8.0 -4.9°
